{"data":{"norad_id":53610,"intl_designator":"2022-104Y","name":"STARLINK-4610","alt_names":[],"object_type":"PAYLOAD","status":"ACTIVE","operator":null,"country":"US","launch_date":"2022-08-28","launch_site_code":"AFETR","launch_vehicle":null,"mission":null,"orbit_class":"UNKNOWN","rcs_meters":null,"size_class":null,"mass_kg":null,"dimensions":null,"purposes":["comms"],"wikipedia_slug":null,"has_3d_model":false,"image_url":null,"decayed_at":null,"tle_current":{"epoch":"2026-09-20T21:47:00.870144Z","epoch_age_seconds":47142,"freshness":"FRESH","line1":"1 53610U 22104Y   26263.90764896  .00000031  00000+0  12774-4 0  9990","line2":"2 53610  53.1599  70.9758 0001143  91.0006 269.1126 15.31701123225190","mean_motion":15.31701123,"eccentricity":0.0001143,"inclination_deg":53.1599,"raan_deg":70.9758,"arg_perigee_deg":91.0006,"mean_anomaly_deg":269.1126,"bstar":1.2774e-5,"rev_number":22519,"period_min":94.013119033275,"perigee_km":469.95382136521,"apogee_km":471.51947388105,"semimajor_km":6848.8736476231,"source":"CELESTRAK","updated_at":"2026-09-21T09:00:32.939643Z"}}}